Flag for Canada Weather past 2 weeks in Camrose, Alberta, Canada

Now
57 °F

Passing clouds.


Feels Like: 57 °F
Forecast: 40 / 60 °F
Wind: 5 mph from East

Location: Edmonton International

Current Time: May 28, 2015 at 9:13:42 PM

Latest Report: May 28, 2015 at 8:00 PM


Visibility: 15 mi

Pressure: 30.34 "Hg

Humidity: 25%

Dew point: 21 °F

Location of CamroseLocation

Historic Weather in Camrose — Graph

°F

Camrose temperature yesterday

Maximum temperature yesterday: 77 °F (at 7:00 PM)
Minimum temperature yesterday: 45 °F (at 5:00 AM)
Average temperature yesterday: 63 °F

Past Weeks' High & Low Weather Summary

 TemperatureHumidityPressure
High81 °F (May 23, 3:00 PM)94% (May 16, 7:57 AM)30.51 "Hg (May 16, 7:57 AM)
Low21 °F (May 17, 6:00 AM)11% (May 22, 4:00 PM)29.83 "Hg (May 25, 5:00 PM)
Average56 °F42%30.09 "Hg
* Reported May 13 7:00 PM — May 28 7:00 PM, Camrose, Weather by CustomWeather, © 2015

Note: Actual official high and low records may vary slightly from our data, if they occured in-between our weather recording intervals... More about our weather records

Advertising

Camrose weather history for previous 24 hours

 ConditionsComfort  
Time TempWeatherWind HumidityBarometerVisibility
7:00 PM
Thu, May 28
57 °FPassing clouds.6 mph25%30.33 "Hg15 mi
6:00 PM57 °FSunny.5 mph25%30.33 "Hg15 mi
5:00 PM59 °FSunny.12 mph27%30.34 "Hg15 mi
4:00 PM57 °FScattered clouds.8 mph25%30.34 "Hg15 mi
3:00 PM54 °FScattered clouds.5 mph28%30.36 "Hg15 mi
2:00 PM54 °FScattered clouds.6 mph28%30.36 "Hg15 mi
1:00 PM52 °FScattered clouds.10 mph32%30.35 "Hg15 mi
12:00 PM52 °FBroken clouds.14 mph35%30.34 "Hg15 mi
11:00 AM50 °FBroken clouds.14 mph47%30.32 "Hg15 mi
10:00 AM50 °FBroken clouds.17 mph40%30.30 "Hg15 mi
9:00 AM48 °FPartly sunny.15 mph62%30.28 "Hg15 mi
8:00 AM46 °FOvercast.16 mph71%30.26 "Hg15 mi
7:00 AM46 °FOvercast.14 mph71%30.23 "Hg15 mi
6:00 AM46 °FOvercast.14 mph82%30.21 "Hg15 mi
5:00 AM46 °FOvercast.17 mph76%30.18 "Hg15 mi
4:00 AM48 °FMostly cloudy.20 mph76%30.15 "Hg15 mi
3:00 AM52 °FMostly cloudy.15 mph72%30.11 "Hg15 mi
2:00 AM54 °FPassing clouds.16 mph67%30.08 "Hg15 mi
1:00 AM54 °FPartly cloudy.22 mph72%30.04 "Hg12 mi
12:50 AM55 °FMostly cloudy.15 mph63%30.04 "Hg10 mi
12:00 AM57 °FPartly cloudy.15 mph67%30.01 "Hg15 mi
11:00 PM
Wed, May 27
61 °FPartly cloudy.10 mph59%29.98 "Hg15 mi
10:00 PM64 °FThunderstorms. Mostly cloudy.13 mph49%29.93 "Hg15 mi
9:00 PM72 °FBroken clouds.7 mph33%29.87 "Hg15 mi
Weather by CustomWeather, © 2015

See weather overviewHow to use our weather pages